SCP
5 5 4 3 2 1 1 1 2 2 2 1 1 1 1 1 1 0 0 0 0 0 0 0 0 0 0 0 0 0 0 0
2 5 5 3 2 2 2 1 2 2 2 1 1 1 1 1 1 1 0 0 0 0 0 0 0 0 0 0 0 0 0 0
0 2 4 3 2 2 1 1 1 1 1 2 1 1 1 1 1 1 1 0 0 0 0 0 0 0 0 0 0 0 0 0
1 2 2 1 2 1 1 1 1 0 0 1 1 1 1 1 0 0 1 0 0 0 0 0 0 0 0 0 0 0 0 0
0 1 1 1 1 1 0 1 0 0 1 1 0 0 0 0 0 0 1 0 0 -0 0 0 0 0 0 0 0 0 0 0
1 1 1 1 1 1 0 0 0 1 1 1 1 0 0 0 0 0 0 0 0 0 0 0 0 0 0 0 0 0 0 0
0 1 1 1 1 0 0 0 0 0 1 1 1 1 0 0 0 0 0 0 0 0 0 0 0 0 0 0 0 0 0 0
0 1 1 1 1 1 0 0 0 0 1 1 1 1 1 0 0 0 0 0 0 0 0 0 0 0 0 0 0 0 0 0
0 2 1 1 0 0 -0 0 0 0 0 1 1 1 0 0 0 0 0 0 0 0 0 0 0 0 0 0 0 0 0 0
1 2 1 1 0 0 0 0 0 0 0 0 0 0 0 0 0 0 1 1 0 0 0 0 0 0 0 0 0 0 0 0
2 1 1 0 0 0 -0 -0 0 0 0 0 0 0 0 0 0 0 0 0 0 0 0 0 0 0 0 0 0 0 0 0
2 2 1 1 0 0 1 0 0 -0 0 0 0 0 0 0 0 0 0 0 0 0 0 0 0 0 0 0 0 0 0 0
2 2 0 0 0 0 0 0 0 0 0 0 0 0 0 0 0 0 0 0 0 0 0 0 0 0 0 0 0 0 0 0
0 0 0 0 0 0 0 0 0 0 0 0 0 0 0 0 0 0 0 0 0 0 0 0 0 0 0 0 0 0 0 0
0 0 0 0 0 0 0 0 0 0 0 0 0 0 0 0 0 0 0 0 0 0 0 0 0 0 0 0 0 0 0 0
0 0 0 0 0 0 0 0 0 0 0 0 0 0 0 0 0 0 0 0 0 0 0 0 0 0 0 0 0 0 0 0
0 0 0 0 0 0 0 0 0 0 0 0 0 0 0 0 0 0 0 0 0 0 0 0 0 0 0 0 0 0 0 0
0 0 0 0 0 0 0 0 0 0 0 0 0 0 0 0 0 0 0 0 0 0 0 0 0 0 0 0 0 0 0 0
0 0 0 0 0 0 0 0 0 0 0 0 0 0 0 0 0 0 0 0 0 0 0 0 0 0 0 0 0 0 0 0
0 0 0 0 0 0 0 0 0 0 0 0 0 0 0 0 0 0 0 0 0 0 0 0 0 0 0 0 0 0 0 0
Wind_Speed_500mb
49 47 54 44 51 53 57 52 50 49 45 38 38 39 39 37 33 29 25 22 19 17 18 21 20 15 12 10 10 14 16 18
49 50 54 51 48 48 51 49 52 48 40 35 33 35 39 39 37 33 29 24 20 18 17 19 20 16 10 5 7 12 16 17
42 49 52 56 56 58 50 47 49 47 43 44 39 35 42 40 36 31 29 25 20 17 18 14 14 16 12 7 12 12 14 20
24 33 47 56 62 59 55 56 53 47 47 56 49 58 47 41 37 35 26 22 19 20 18 17 16 14 16 14 17 21 20 25
33 32 32 35 45 48 52 48 49 46 51 54 58 53 47 37 36 30 27 26 24 20 19 15 17 20 23 22 25 29 32 34
37 35 36 41 44 48 54 45 51 52 52 60 56 50 34 37 38 33 31 30 23 17 17 18 19 25 26 27 33 39 42 43
50 46 45 45 39 47 55 51 58 60 58 59 54 41 40 41 42 32 22 27 25 17 15 21 28 29 39 40 39 43 43 47
59 60 56 45 43 58 68 64 63 66 60 57 51 44 40 33 30 20 21 19 21 18 23 26 31 37 31 38 39 36 35 44
53 54 48 48 56 68 75 68 62 55 53 46 42 45 33 22 20 25 20 18 21 23 22 23 31 29 25 28 30 33 37 35
45 45 50 53 62 69 67 60 51 45 42 45 38 32 22 18 20 20 17 18 18 19 24 24 27 27 25 30 33 34 36 39
50 47 53 65 71 65 61 56 42 44 45 39 41 30 29 29 31 27 27 25 22 23 25 28 27 28 28 29 30 31 38 37
50 59 69 75 65 66 62 41 47 48 45 41 34 37 36 36 37 32 29 27 25 25 23 21 21 24 27 31 34 36 38 39
60 69 77 75 74 69 58 59 52 45 42 39 40 44 42 39 35 28 25 24 20 19 17 18 20 23 26 29 30 34 39 44
60 67 72 74 65 62 55 45 43 40 43 43 43 40 41 37 31 28 23 22 21 18 20 21 22 27 30 33 35 39 41 45
60 62 64 59 57 56 50 49 45 44 40 37 36 36 33 30 26 22 20 19 19 22 25 26 30 34 39 43 46 48 52 55
69 61 45 51 45 39 41 39 43 34 34 34 33 30 26 23 20 16 15 18 22 24 27 29 32 36 41 45 48 51 53 56
70 66 63 51 51 32 33 34 35 31 28 28 26 24 20 16 12 10 11 13 15 19 24 29 34 39 41 43 43 44 45 47
76 73 65 60 59 49 37 36 34 30 26 22 18 14 10 7 3 6 10 14 18 21 26 31 33 35 38 41 43 45 49 49
76 70 66 59 60 52 40 33 28 23 18 14 9 6 1 4 8 12 15 18 20 24 30 33 36 39 42 44 48 50 49 50
70 71 69 63 57 45 31 28 19 15 12 8 4 3 7 12 14 15 18 20 23 30 33 35 39 44 46 47 45 42 46 48
Wind_Direction_500mb
189 196 201 201 191 190 192 193 197 199 202 204 206 209 213 216 219 224 225 224 226 227 228 228 228 228 236 248 250 257 262 265
199 207 215 200 205 205 193 197 204 203 200 204 212 216 219 221 223 223 227 226 230 235 232 222 219 217 213 226 266 270 271 270
192 202 205 210 216 207 204 204 201 199 203 192 220 224 231 229 230 229 236 233 225 224 217 212 205 195 191 227 258 266 252 250
200 196 198 204 211 214 210 207 216 218 221 224 216 212 218 220 229 234 225 231 226 202 197 204 202 203 216 227 238 237 241 242
236 243 215 204 199 208 214 214 208 210 214 234 213 213 215 217 221 225 204 196 203 189 197 205 228 240 245 257 264 263 268 272
242 235 221 199 199 208 205 211 211 210 220 217 215 214 211 210 205 193 195 210 216 219 219 237 255 251 255 263 270 267 269 271
252 245 231 213 210 204 199 202 207 218 216 218 215 224 220 209 212 211 210 224 237 240 247 266 269 264 274 264 267 272 276 286
250 248 231 215 208 205 195 199 210 217 218 222 226 209 218 226 220 207 220 245 249 248 250 263 269 273 275 263 270 274 283 295
246 236 220 205 199 205 200 200 209 214 218 209 204 209 210 203 222 230 232 216 226 237 239 259 254 271 280 276 285 288 293 296
228 214 206 195 193 196 199 202 204 202 205 191 205 215 215 207 212 206 207 211 215 243 255 259 257 262 271 281 284 283 282 290
213 201 195 191 196 194 196 195 193 187 186 204 212 209 195 198 211 225 217 222 245 251 249 255 254 257 266 267 273 274 274 278
199 191 190 195 191 194 192 173 195 190 193 192 193 207 209 213 220 217 220 238 254 261 254 251 254 257 258 260 262 261 262 267
183 187 189 187 191 193 189 185 186 186 189 199 206 208 214 221 224 219 222 243 237 232 243 253 253 257 257 258 260 258 258 263
168 177 178 180 181 178 180 186 192 198 217 212 219 222 217 209 207 216 221 218 218 232 241 245 251 255 259 262 263 264 265 267
151 149 154 168 178 176 186 192 196 199 208 212 206 200 191 193 197 202 203 216 233 245 254 262 269 273 274 274 273 274 273 274
147 145 158 140 143 145 164 178 175 169 164 166 167 169 179 184 184 192 214 234 247 258 265 272 278 281 283 282 282 281 280 279
140 138 137 131 129 129 140 143 142 145 143 147 152 158 168 179 191 212 235 254 272 282 289 292 293 295 296 298 297 296 294 291
136 133 128 129 124 127 128 131 134 134 138 138 141 143 150 161 198 272 291 299 298 303 308 309 311 311 311 309 308 306 302 300
137 135 135 132 129 125 127 125 126 122 118 115 119 126 126 305 302 304 314 315 318 320 313 313 315 317 316 313 312 308 305 303
140 141 140 138 127 128 136 135 131 121 116 112 92 359 329 321 315 319 317 317 318 317 318 318 321 321 317 312 310 307 303 304
Wind_Speed_850mb
49 47 54 44 51 53 57 52 50 49 45 38 38 39 39 37 33 29 25 22 19 17 18 21 20 15 12 10 10 14 16 18
49 50 54 51 48 48 51 49 52 48 40 35 33 35 39 39 37 33 29 24 20 18 17 19 20 16 10 5 7 12 16 17
42 49 52 56 56 58 50 47 49 47 43 44 39 35 42 40 36 31 29 25 20 17 18 14 14 16 12 7 12 12 14 20
24 33 47 56 62 59 55 56 53 47 47 56 49 58 47 41 37 35 26 22 19 20 18 17 16 14 16 14 17 21 20 25
33 32 32 35 45 48 52 48 49 46 51 54 58 53 47 37 36 30 27 26 24 20 19 15 17 20 23 22 25 29 32 34
37 35 36 41 44 48 54 45 51 52 52 60 56 50 34 37 38 33 31 30 23 17 17 18 19 25 26 27 33 39 42 43
50 46 45 45 39 47 55 51 58 60 58 59 54 41 40 41 42 32 22 27 25 17 15 21 28 29 39 40 39 43 43 47
59 60 56 45 43 58 68 64 63 66 60 57 51 44 40 33 30 20 21 19 21 18 23 26 31 37 31 38 39 36 35 44
53 54 48 48 56 68 75 68 62 55 53 46 42 45 33 22 20 25 20 18 21 23 22 23 31 29 25 28 30 33 37 35
45 45 50 53 62 69 67 60 51 45 42 45 38 32 22 18 20 20 17 18 18 19 24 24 27 27 25 30 33 34 36 39
50 47 53 65 71 65 61 56 42 44 45 39 41 30 29 29 31 27 27 25 22 23 25 28 27 28 28 29 30 31 38 37
50 59 69 75 65 66 62 41 47 48 45 41 34 37 36 36 37 32 29 27 25 25 23 21 21 24 27 31 34 36 38 39
60 69 77 75 74 69 58 59 52 45 42 39 40 44 42 39 35 28 25 24 20 19 17 18 20 23 26 29 30 34 39 44
60 67 72 74 65 62 55 45 43 40 43 43 43 40 41 37 31 28 23 22 21 18 20 21 22 27 30 33 35 39 41 45
60 62 64 59 57 56 50 49 45 44 40 37 36 36 33 30 26 22 20 19 19 22 25 26 30 34 39 43 46 48 52 55
69 61 45 51 45 39 41 39 43 34 34 34 33 30 26 23 20 16 15 18 22 24 27 29 32 36 41 45 48 51 53 56
70 66 63 51 51 32 33 34 35 31 28 28 26 24 20 16 12 10 11 13 15 19 24 29 34 39 41 43 43 44 45 47
76 73 65 60 59 49 37 36 34 30 26 22 18 14 10 7 3 6 10 14 18 21 26 31 33 35 38 41 43 45 49 49
76 70 66 59 60 52 40 33 28 23 18 14 9 6 1 4 8 12 15 18 20 24 30 33 36 39 42 44 48 50 49 50
70 71 69 63 57 45 31 28 19 15 12 8 4 3 7 12 14 15 18 20 23 30 33 35 39 44 46 47 45 42 46 48
Wind_Direction_850mb
189 196 201 201 191 190 192 193 197 199 202 204 206 209 213 216 219 224 225 224 226 227 228 228 228 228 236 248 250 257 262 265
199 207 215 200 205 205 193 197 204 203 200 204 212 216 219 221 223 223 227 226 230 235 232 222 219 217 213 226 266 270 271 270
192 202 205 210 216 207 204 204 201 199 203 192 220 224 231 229 230 229 236 233 225 224 217 212 205 195 191 227 258 266 252 250
200 196 198 204 211 214 210 207 216 218 221 224 216 212 218 220 229 234 225 231 226 202 197 204 202 203 216 227 238 237 241 242
236 243 215 204 199 208 214 214 208 210 214 234 213 213 215 217 221 225 204 196 203 189 197 205 228 240 245 257 264 263 268 272
242 235 221 199 199 208 205 211 211 210 220 217 215 214 211 210 205 193 195 210 216 219 219 237 255 251 255 263 270 267 269 271
252 245 231 213 210 204 199 202 207 218 216 218 215 224 220 209 212 211 210 224 237 240 247 266 269 264 274 264 267 272 276 286
250 248 231 215 208 205 195 199 210 217 218 222 226 209 218 226 220 207 220 245 249 248 250 263 269 273 275 263 270 274 283 295
246 236 220 205 199 205 200 200 209 214 218 209 204 209 210 203 222 230 232 216 226 237 239 259 254 271 280 276 285 288 293 296
228 214 206 195 193 196 199 202 204 202 205 191 205 215 215 207 212 206 207 211 215 243 255 259 257 262 271 281 284 283 282 290
213 201 195 191 196 194 196 195 193 187 186 204 212 209 195 198 211 225 217 222 245 251 249 255 254 257 266 267 273 274 274 278
199 191 190 195 191 194 192 173 195 190 193 192 193 207 209 213 220 217 220 238 254 261 254 251 254 257 258 260 262 261 262 267
183 187 189 187 191 193 189 185 186 186 189 199 206 208 214 221 224 219 222 243 237 232 243 253 253 257 257 258 260 258 258 263
168 177 178 180 181 178 180 186 192 198 217 212 219 222 217 209 207 216 221 218 218 232 241 245 251 255 259 262 263 264 265 267
151 149 154 168 178 176 186 192 196 199 208 212 206 200 191 193 197 202 203 216 233 245 254 262 269 273 274 274 273 274 273 274
147 145 158 140 143 145 164 178 175 169 164 166 167 169 179 184 184 192 214 234 247 258 265 272 278 281 283 282 282 281 280 279
140 138 137 131 129 129 140 143 142 145 143 147 152 158 168 179 191 212 235 254 272 282 289 292 293 295 296 298 297 296 294 291
136 133 128 129 124 127 128 131 134 134 138 138 141 143 150 161 198 272 291 299 298 303 308 309 311 311 311 309 308 306 302 300
137 135 135 132 129 125 127 125 126 122 118 115 119 126 126 305 302 304 314 315 318 320 313 313 315 317 316 313 312 308 305 303
140 141 140 138 127 128 136 135 131 121 116 112 92 359 329 321 315 319 317 317 318 317 318 318 321 321 317 312 310 307 303 304